Retour au catalogue

FENGYUN 1C DEB

ActifSSO
NORAD 30286·DEBRIS·🇨🇳 China

Lancé May 10, 1999 depuis Taiyuan Satellite Launch Center

Loading…

Prochains Passages (prochaines 24 heures)

TLE

FraisSource: Space-Track

Époque: Sep 14, 2026, 23:06 UTC

1 30286U 99025YX  26257.96275417  .00000066  00000-0  56900-4 0  9993
2 30286  98.6958 259.2567 0064931  66.9526 322.5726 14.12815231 13570

Suivez FENGYUN 1C DEB en temps réel avec AllMySat

Download on the App Store